Marshall, MN

7:26 AM CST on February 19, 2017 (GMT -0600)
Marshall Municipal-Ryan

Weather History for KMML - January, 2013

Change the Weather History Date:

Monday, January 7, 2013

  Actual Average Record
Temperature  
Mean Temperature 30 °F -  
Max Temperature 35 °F 17 °F 55 °F (2003)
Min Temperature 26 °F 0 °F -22 °F (1976)
Degree Days  
Heating Degree Days 34    
Moisture  
Dew Point 21 °F    
Average Humidity 68    
Maximum Humidity 80    
Minimum Humidity 60    
Precipitation  
Precipitation 0.00 in - - ()
Sea Level Pressure  
Sea Level Pressure 29.89 in    
Wind  
Wind Speed 18 mph (WSW)    
Max Wind Speed 30 mph    
Max Gust Speed 38 mph    
Visibility 10 miles    
Events      
Averages and records for this station are not official NWS values.
T = Trace of Precipitation, MM = Missing Value Source: NWS Daily Summary

Daily Weather History Graph

Daily Weather History Graph

Search for Another Location

Airport or City:

Trip Planner

Search our weather history database for the weather conditions in past years. The results will help you decide how hot, cold, wet, or windy it might be!

Date:

Astronomy

Jan. 07, 2013 Rise Set
Actual Time 7:59 AM CST 5:00 PM CST
Civil Twilight 7:26 AM CST 5:33 PM CST
Nautical Twilight 6:49 AM CST 6:10 PM CST
Astronomical Twilight 6:14 AM CST 6:45 PM CST
Moon 3:21 AM CST (1/7) 1:14 PM CST (1/7)
Length of Visible Light 10h 07m
Length of Day
9h 01m
Waning Crescent, 22% of the Moon is Illuminated
Jan 7
Waning Crescent
Jan 11
New
Jan 18
First Quarter
Jan 26
Full
Feb 3
Last Quarter

Hourly Weather History & Observations

Time (CST) Temp. Windchill Dew Point Humidity Pressure Visibility Wind Dir Wind Speed Gust Speed Precip Events Conditions
12:15 AM 28.4 °F 13.3 °F 17.6 °F 64% 29.84 in 10.0 mi SSW 27.6 mph 33.4 mph N/A   Clear
12:35 AM 28.4 °F 13.3 °F 17.6 °F 64% 29.85 in 10.0 mi SW 27.6 mph 33.4 mph N/A   Clear
12:55 AM 28.4 °F 14.7 °F 17.6 °F 64% 29.85 in 10.0 mi SSW 21.9 mph - N/A   Clear
1:15 AM 28.4 °F 16.2 °F 19.4 °F 69% 29.85 in 10.0 mi SSW 17.3 mph - N/A   Clear
1:35 AM 28.4 °F 14.7 °F 19.4 °F 69% 29.84 in 10.0 mi SSW 21.9 mph 29.9 mph N/A   Clear
1:55 AM 30.2 °F 16.5 °F 19.4 °F 64% 29.84 in 10.0 mi SSW 24.2 mph 29.9 mph N/A   Clear
2:15 AM 28.4 °F 14.4 °F 19.4 °F 69% 29.83 in 10.0 mi SSW 23.0 mph 28.8 mph N/A   Clear
2:35 AM 30.2 °F 15.9 °F 19.4 °F 64% 29.82 in 10.0 mi SW 26.5 mph 35.7 mph N/A   Clear
2:55 AM 30.2 °F 16.5 °F 19.4 °F 64% 29.82 in 10.0 mi SW 24.2 mph 33.4 mph N/A   Clear
3:15 AM 30.2 °F 15.2 °F 19.4 °F 64% 29.82 in 10.0 mi SW 29.9 mph 36.8 mph N/A   Clear
3:35 AM 30.2 °F 15.9 °F 19.4 °F 64% 29.81 in 10.0 mi SW 26.5 mph 38.0 mph N/A   Clear
3:55 AM 30.2 °F 15.2 °F 21.2 °F 69% 29.80 in 10.0 mi SW 29.9 mph 36.8 mph N/A   Clear
4:15 AM 30.2 °F 15.7 °F 21.2 °F 69% 29.82 in 10.0 mi SW 27.6 mph 33.4 mph N/A   Clear
4:35 AM 30.2 °F 15.9 °F 19.4 °F 64% 29.82 in 10.0 mi SW 26.5 mph 32.2 mph N/A   Clear
4:55 AM 30.2 °F 17.1 °F 19.4 °F 64% 29.84 in 10.0 mi WSW 21.9 mph 36.8 mph N/A   Clear
5:15 AM 30.2 °F 18.1 °F 21.2 °F 69% 29.85 in 10.0 mi WSW 18.4 mph 29.9 mph N/A   Clear
5:35 AM 28.4 °F 15.4 °F 19.4 °F 69% 29.85 in 10.0 mi WSW 19.6 mph 29.9 mph N/A   Clear
6:35 AM 28.4 °F 15.8 °F 19.4 °F 69% 29.86 in 10.0 mi WSW 18.4 mph - N/A   Clear
6:55 AM 28.4 °F 16.2 °F 19.4 °F 69% 29.87 in 10.0 mi WSW 17.3 mph - N/A   Clear
7:15 AM 26.6 °F 13.8 °F 19.4 °F 74% 29.86 in 10.0 mi WSW 17.3 mph - N/A   Clear
7:35 AM 26.6 °F 13.4 °F 19.4 °F 74% 29.86 in 10.0 mi WSW 18.4 mph - N/A   Clear
7:55 AM 26.6 °F 13.4 °F 19.4 °F 74% 29.85 in 10.0 mi WSW 18.4 mph - N/A   Clear
8:15 AM 28.4 °F 15.8 °F 19.4 °F 69% 29.88 in 10.0 mi WSW 18.4 mph - N/A   Clear
8:35 AM 28.4 °F 17.0 °F 19.4 °F 69% 29.89 in 10.0 mi WSW 15.0 mph - N/A   Clear
8:55 AM 28.4 °F 17.0 °F 19.4 °F 69% 29.90 in 10.0 mi WSW 15.0 mph - N/A   Clear
9:15 AM 30.2 °F 20.2 °F 21.2 °F 69% 29.90 in 10.0 mi WSW 12.7 mph - N/A   Clear
9:35 AM 30.2 °F 20.8 °F 21.2 °F 69% 29.91 in 10.0 mi WSW 11.5 mph - N/A   Clear
9:55 AM 30.2 °F 21.9 °F 23.0 °F 75% 29.92 in 10.0 mi SW 9.2 mph - N/A   Clear
10:15 AM 32.0 °F 22.5 °F 21.2 °F 64% 29.92 in 10.0 mi West 12.7 mph - N/A   Clear
10:35 AM 32.0 °F 22.1 °F 21.2 °F 64% 29.92 in 10.0 mi West 13.8 mph - N/A   Clear
10:55 AM 33.8 °F 23.9 °F 21.2 °F 60% 29.92 in 10.0 mi West 15.0 mph - N/A   Clear
11:15 AM 33.8 °F 23.9 °F 21.2 °F 60% 29.93 in 10.0 mi West 15.0 mph - N/A   Clear
11:35 AM 33.8 °F 24.3 °F 23.0 °F 65% 29.92 in 10.0 mi West 13.8 mph - N/A   Clear
11:55 AM 33.8 °F 24.8 °F 24.8 °F 70% 29.92 in 10.0 mi West 12.7 mph - N/A   Clear
12:15 PM 35.6 °F 27.5 °F 24.8 °F 65% 29.91 in 10.0 mi West 11.5 mph - N/A   Clear
12:35 PM 35.6 °F 26.2 °F 24.8 °F 65% 29.90 in 10.0 mi West 15.0 mph - N/A   Clear
1:15 PM 35.6 °F 29.2 °F 24.8 °F 65% 29.90 in 10.0 mi West 8.1 mph - N/A   Clear
1:35 PM 35.6 °F 29.9 °F 26.6 °F 70% 29.90 in 10.0 mi West 6.9 mph - N/A   Clear
1:55 PM 35.6 °F 27.5 °F 24.8 °F 65% 29.90 in 10.0 mi West 11.5 mph - N/A   Clear
2:15 PM 35.6 °F 31.7 °F 26.6 °F 70% 29.90 in 10.0 mi WSW 4.6 mph - N/A   Clear
2:35 PM 35.6 °F 27.1 °F 24.8 °F 65% 29.90 in 10.0 mi West 12.7 mph - N/A   Clear
2:55 PM 35.6 °F 27.1 °F 24.8 °F 65% 29.90 in 10.0 mi West 12.7 mph - N/A   Clear
3:15 PM 35.6 °F 26.6 °F 24.8 °F 65% 29.90 in 10.0 mi West 13.8 mph - N/A   Clear
3:35 PM 33.8 °F 25.8 °F 24.8 °F 70% 29.91 in 10.0 mi West 10.4 mph - N/A   Clear
3:55 PM 33.8 °F 25.8 °F 24.8 °F 70% 29.92 in 10.0 mi West 10.4 mph - N/A   Clear
4:15 PM 33.8 °F 25.3 °F 23.0 °F 65% 29.92 in 10.0 mi WNW 11.5 mph - N/A   Clear
4:35 PM 33.8 °F 25.8 °F 23.0 °F 65% 29.93 in 10.0 mi WNW 10.4 mph - N/A   Clear
5:15 PM 30.2 °F 22.6 °F 21.2 °F 69% 29.94 in 10.0 mi West 8.1 mph - N/A   Clear
5:35 PM 30.2 °F 22.6 °F 21.2 °F 69% 29.94 in 10.0 mi WSW 8.1 mph - N/A   Clear
5:55 PM 30.2 °F 22.6 °F 21.2 °F 69% 29.94 in 10.0 mi WSW 8.1 mph - N/A   Clear
6:15 PM 30.2 °F 21.9 °F 21.2 °F 69% 29.94 in 10.0 mi WSW 9.2 mph - N/A   Clear
6:35 PM 30.2 °F 21.3 °F 21.2 °F 69% 29.94 in 10.0 mi SW 10.4 mph - N/A   Clear
6:55 PM 28.4 °F 20.4 °F 19.4 °F 69% 29.94 in 10.0 mi SW 8.1 mph - N/A   Clear
7:15 PM 28.4 °F 22.2 °F 21.2 °F 74% 29.94 in 10.0 mi SSW 5.8 mph - N/A   Clear
7:35 PM 30.2 °F 25.4 °F 21.2 °F 69% 29.94 in 10.0 mi WSW 4.6 mph - N/A   Clear
7:55 PM 28.4 °F 23.3 °F 21.2 °F 74% 29.94 in 10.0 mi WSW 4.6 mph - N/A   Clear
8:15 PM 28.4 °F 22.2 °F 21.2 °F 74% 29.94 in 10.0 mi West 5.8 mph - N/A   Clear
8:35 PM 28.4 °F 23.3 °F 19.4 °F 69% 29.94 in 10.0 mi West 4.6 mph - N/A   Clear
8:55 PM 28.4 °F 22.2 °F 19.4 °F 69% 29.94 in 10.0 mi WSW 5.8 mph - N/A   Clear
9:35 PM 28.4 °F 24.6 °F 19.4 °F 69% 29.94 in 10.0 mi SW 3.5 mph - N/A   Mostly Cloudy
9:55 PM 28.4 °F 23.3 °F 19.4 °F 69% 29.94 in 10.0 mi SW 4.6 mph - N/A   Mostly Cloudy
10:15 PM 26.6 °F 21.2 °F 19.4 °F 74% 29.94 in 10.0 mi South 4.6 mph - N/A   Scattered Clouds
10:35 PM 28.4 °F 19.7 °F 21.2 °F 74% 29.94 in 10.0 mi SW 9.2 mph - N/A   Partly Cloudy
10:55 PM 26.6 °F 22.6 °F 19.4 °F 74% 29.94 in 10.0 mi SSW 3.5 mph - N/A   Clear
11:15 PM 28.4 °F 21.2 °F 19.4 °F 69% 29.94 in 10.0 mi WSW 6.9 mph - N/A   Clear
11:35 PM 26.6 °F 20.0 °F 21.2 °F 80% 29.94 in 10.0 mi WSW 5.8 mph - N/A   Clear
11:55 PM 26.6 °F 18.2 °F 19.4 °F 74% 29.93 in 10.0 mi WSW 8.1 mph - N/A   Clear